Time,TemperatureF,DewpointF,PressureIn,WindDirection,WindDirectionDegrees,WindSpeedMPH,WindSpeedGustMPH,Humidity,HourlyPrecipIn,Conditions,Clouds,dailyrainin,SoftwareType,DateUTC
2013-05-06 00:01:00,48.8,45.7,30.06,NW,315,0.0,-999.0,89,0.00,,,0.00,WeatherSnoop3.0,2013-05-06 05:01:00,
2013-05-06 00:06:00,48.8,46.0,30.06,NW,315,0.0,-999.0,90,0.00,,,0.00,WeatherSnoop3.0,2013-05-06 05:06:00,
2013-05-06 00:11:00,48.7,45.9,30.06,NW,315,0.0,-999.0,90,0.00,,,0.00,WeatherSnoop3.0,2013-05-06 05:11:00,
2013-05-06 00:16:00,48.6,45.8,30.06,NW,315,0.0,-999.0,90,0.00,,,0.00,WeatherSnoop3.0,2013-05-06 05:16:00,
2013-05-06 00:21:00,48.4,45.6,30.06,NW,315,0.0,-999.0,90,0.00,,,0.00,WeatherSnoop3.0,2013-05-06 05:21:00,
2013-05-06 00:26:00,48.3,45.5,30.06,NW,315,0.0,-999.0,90,0.00,,,0.00,WeatherSnoop3.0,2013-05-06 05:26:00,
2013-05-06 00:31:00,48.2,45.4,30.05,NW,315,0.0,-999.0,90,0.00,,,0.00,WeatherSnoop3.0,2013-05-06 05:31:00,
2013-05-06 00:36:00,48.2,45.7,30.06,NW,315,0.0,-999.0,91,0.00,,,0.00,WeatherSnoop3.0,2013-05-06 05:36:00,
2013-05-06 00:41:00,48.1,45.6,30.06,NW,315,0.0,-999.0,91,0.00,,,0.00,WeatherSnoop3.0,2013-05-06 05:41:00,
2013-05-06 00:46:00,47.9,45.4,30.06,NW,315,0.0,-999.0,91,0.00,,,0.00,WeatherSnoop3.0,2013-05-06 05:46:00,
2013-05-06 00:51:00,47.8,45.3,30.05,NW,315,0.0,-999.0,91,0.00,,,0.00,WeatherSnoop3.0,2013-05-06 05:51:00,
2013-05-06 00:56:00,47.6,45.1,30.06,NW,315,0.0,-999.0,91,0.00,,,0.00,WeatherSnoop3.0,2013-05-06 05:56:00,
2013-05-06 01:01:00,47.6,45.4,30.05,NW,315,0.0,-999.0,92,0.00,,,0.00,WeatherSnoop3.0,2013-05-06 06:01:00,
2013-05-06 01:06:00,47.6,45.4,30.05,NW,315,0.0,-999.0,92,0.00,,,0.00,WeatherSnoop3.0,2013-05-06 06:06:00,
2013-05-06 01:11:00,47.6,45.4,30.05,NW,315,0.0,-999.0,92,0.00,,,0.00,WeatherSnoop3.0,2013-05-06 06:11:00,
2013-05-06 01:16:00,47.6,45.4,30.05,NW,315,0.0,-999.0,92,0.00,,,0.00,WeatherSnoop3.0,2013-05-06 06:16:00,
2013-05-06 01:21:00,47.6,45.4,30.05,NW,315,0.0,-999.0,92,0.00,,,0.00,WeatherSnoop3.0,2013-05-06 06:21:00,
2013-05-06 01:26:00,47.7,45.8,30.05,NW,315,0.0,-999.0,93,0.00,,,0.00,WeatherSnoop3.0,2013-05-06 06:26:00,
2013-05-06 01:31:00,48.0,46.1,30.05,NW,314,0.0,-999.0,93,0.00,,,0.00,WeatherSnoop3.0,2013-05-06 06:31:00,
2013-05-06 01:36:00,48.1,46.2,30.05,NW,315,0.0,-999.0,93,0.00,,,0.00,WeatherSnoop3.0,2013-05-06 06:36:00,
2013-05-06 01:41:00,48.0,46.1,30.04,NW,315,0.0,-999.0,93,0.00,,,0.00,WeatherSnoop3.0,2013-05-06 06:41:00,
2013-05-06 01:46:00,47.9,46.0,30.04,NW,315,0.0,-999.0,93,0.00,,,0.00,WeatherSnoop3.0,2013-05-06 06:46:00,
2013-05-06 01:51:00,47.9,46.0,30.04,NW,315,0.0,-999.0,93,0.00,,,0.00,WeatherSnoop3.0,2013-05-06 06:51:00,
2013-05-06 01:56:00,47.9,46.0,30.04,NW,315,0.0,-999.0,93,0.00,,,0.00,WeatherSnoop3.0,2013-05-06 06:56:00,
2013-05-06 02:01:00,48.0,46.4,30.04,North,360,0.0,-999.0,94,0.00,,,0.00,WeatherSnoop3.0,2013-05-06 07:01:00,
2013-05-06 02:06:00,48.3,46.7,30.03,NW,315,0.0,-999.0,94,0.00,,,0.00,WeatherSnoop3.0,2013-05-06 07:06:00,
2013-05-06 02:11:00,48.4,46.8,30.03,NW,315,0.0,-999.0,94,0.00,,,0.00,WeatherSnoop3.0,2013-05-06 07:11:00,
2013-05-06 02:16:00,48.4,46.8,30.03,NW,315,0.0,-999.0,94,0.00,,,0.00,WeatherSnoop3.0,2013-05-06 07:16:00,
2013-05-06 02:21:00,48.2,46.6,30.03,NW,314,0.0,-999.0,94,0.00,,,0.00,WeatherSnoop3.0,2013-05-06 07:21:00,
2013-05-06 02:26:00,48.0,46.1,30.03,NW,315,0.0,-999.0,93,0.00,,,0.00,WeatherSnoop3.0,2013-05-06 07:26:00,
2013-05-06 02:31:00,47.8,45.9,30.03,NW,315,0.0,-999.0,93,0.00,,,0.00,WeatherSnoop3.0,2013-05-06 07:31:00,
2013-05-06 02:36:00,47.6,45.7,30.03,NW,315,0.0,-999.0,93,0.00,,,0.00,WeatherSnoop3.0,2013-05-06 07:36:00,
2013-05-06 02:41:00,47.4,45.5,30.03,NW,315,0.0,-999.0,93,0.00,,,0.00,WeatherSnoop3.0,2013-05-06 07:41:00,
2013-05-06 02:46:00,47.3,45.7,30.03,NW,315,0.0,-999.0,94,0.00,,,0.00,WeatherSnoop3.0,2013-05-06 07:46:00,
2013-05-06 02:51:00,47.1,45.5,30.03,North,360,0.0,-999.0,94,0.00,,,0.00,WeatherSnoop3.0,2013-05-06 07:51:00,
2013-05-06 02:56:00,47.0,45.1,30.03,NW,315,0.0,-999.0,93,0.00,,,0.00,WeatherSnoop3.0,2013-05-06 07:56:00,
2013-05-06 03:01:00,46.9,45.3,30.03,NW,315,0.0,-999.0,94,0.00,,,0.00,WeatherSnoop3.0,2013-05-06 08:01:00,
2013-05-06 03:06:00,46.7,45.1,30.03,NW,315,0.0,-999.0,94,0.00,,,0.00,WeatherSnoop3.0,2013-05-06 08:06:00,
2013-05-06 03:11:00,46.7,45.1,30.03,NW,315,0.0,-999.0,94,0.00,,,0.00,WeatherSnoop3.0,2013-05-06 08:11:00,
2013-05-06 03:16:00,46.7,45.1,30.03,North,360,0.0,-999.0,94,0.00,,,0.00,WeatherSnoop3.0,2013-05-06 08:16:00,
2013-05-06 03:21:00,46.8,45.2,30.03,NW,315,0.0,-999.0,94,0.00,,,0.00,WeatherSnoop3.0,2013-05-06 08:21:00,
2013-05-06 03:26:00,46.7,45.1,30.03,NW,315,0.0,-999.0,94,0.00,,,0.00,WeatherSnoop3.0,2013-05-06 08:26:00,
2013-05-06 03:31:00,46.6,45.0,30.03,NW,315,0.0,-999.0,94,0.00,,,0.00,WeatherSnoop3.0,2013-05-06 08:31:00,
2013-05-06 03:36:00,46.6,45.0,30.03,NW,315,0.0,-999.0,94,0.00,,,0.00,WeatherSnoop3.0,2013-05-06 08:36:00,
2013-05-06 03:41:00,46.6,45.0,30.03,NW,315,0.0,-999.0,94,0.00,,,0.00,WeatherSnoop3.0,2013-05-06 08:41:00,
2013-05-06 03:46:00,46.6,45.0,30.03,NW,315,0.0,-999.0,94,0.00,,,0.00,WeatherSnoop3.0,2013-05-06 08:46:00,
2013-05-06 03:51:00,46.5,44.9,30.03,NW,314,0.0,-999.0,94,0.00,,,0.00,WeatherSnoop3.0,2013-05-06 08:51:00,
2013-05-06 03:56:00,46.4,45.0,30.03,NW,315,0.0,-999.0,95,0.00,,,0.00,WeatherSnoop3.0,2013-05-06 08:56:00,
2013-05-06 04:01:00,46.4,45.0,30.03,NW,315,0.0,-999.0,95,0.00,,,0.00,WeatherSnoop3.0,2013-05-06 09:01:00,
2013-05-06 04:06:00,46.3,44.9,30.03,North,360,0.0,-999.0,95,0.00,,,0.00,WeatherSnoop3.0,2013-05-06 09:06:00,
2013-05-06 04:11:00,46.3,44.9,30.03,NW,315,0.0,-999.0,95,0.00,,,0.00,WeatherSnoop3.0,2013-05-06 09:11:00,
2013-05-06 04:16:00,46.2,44.8,30.03,North,360,0.0,-999.0,95,0.00,,,0.00,WeatherSnoop3.0,2013-05-06 09:16:00,
2013-05-06 04:21:00,46.1,44.7,30.03,NW,315,0.0,-999.0,95,0.00,,,0.00,WeatherSnoop3.0,2013-05-06 09:21:00,
2013-05-06 04:26:00,46.0,44.6,30.03,NW,315,0.0,-999.0,95,0.00,,,0.00,WeatherSnoop3.0,2013-05-06 09:26:00,
2013-05-06 04:31:00,46.0,44.6,30.03,North,360,0.0,-999.0,95,0.00,,,0.00,WeatherSnoop3.0,2013-05-06 09:31:00,
2013-05-06 04:36:00,46.2,44.8,30.03,NW,315,0.0,-999.0,95,0.00,,,0.00,WeatherSnoop3.0,2013-05-06 09:36:00,
2013-05-06 04:41:00,46.3,44.9,30.03,NW,315,0.0,-999.0,95,0.00,,,0.00,WeatherSnoop3.0,2013-05-06 09:41:00,
2013-05-06 04:46:00,46.5,45.1,30.03,NW,315,0.0,-999.0,95,0.00,,,0.00,WeatherSnoop3.0,2013-05-06 09:46:00,
2013-05-06 04:51:00,46.7,45.3,30.03,North,360,0.0,-999.0,95,0.00,,,0.00,WeatherSnoop3.0,2013-05-06 09:51:00,
2013-05-06 04:56:00,46.7,45.3,30.03,NW,315,0.0,-999.0,95,0.00,,,0.00,WeatherSnoop3.0,2013-05-06 09:56:00,
2013-05-06 05:01:00,46.7,45.3,30.03,NW,315,0.0,-999.0,95,0.00,,,0.00,WeatherSnoop3.0,2013-05-06 10:01:00,
2013-05-06 05:06:00,46.9,45.5,30.03,North,360,0.0,-999.0,95,0.00,,,0.00,WeatherSnoop3.0,2013-05-06 10:06:00,
2013-05-06 05:11:00,46.8,45.4,30.03,North,360,0.0,-999.0,95,0.00,,,0.00,WeatherSnoop3.0,2013-05-06 10:11:00,
2013-05-06 05:16:00,46.7,45.3,30.03,NW,315,0.0,-999.0,95,0.00,,,0.00,WeatherSnoop3.0,2013-05-06 10:16:00,
2013-05-06 05:21:00,46.7,45.3,30.03,NW,315,0.0,-999.0,95,0.00,,,0.00,WeatherSnoop3.0,2013-05-06 10:21:00,
2013-05-06 05:26:00,46.6,45.5,30.03,NW,315,0.0,-999.0,96,0.00,,,0.00,WeatherSnoop3.0,2013-05-06 10:26:00,
2013-05-06 05:31:00,46.6,45.5,30.03,NW,315,0.0,-999.0,96,0.00,,,0.00,WeatherSnoop3.0,2013-05-06 10:31:00,
2013-05-06 05:36:00,46.5,45.1,30.03,NW,315,0.0,-999.0,95,0.00,,,0.00,WeatherSnoop3.0,2013-05-06 10:36:00,
2013-05-06 05:41:00,46.5,45.1,30.04,NW,315,0.0,-999.0,95,0.00,,,0.00,WeatherSnoop3.0,2013-05-06 10:41:00,
2013-05-06 05:46:00,46.5,45.1,30.04,NW,315,0.0,-999.0,95,0.00,,,0.00,WeatherSnoop3.0,2013-05-06 10:46:00,
2013-05-06 05:51:00,46.6,45.5,30.04,NW,314,0.0,-999.0,96,0.00,,,0.00,WeatherSnoop3.0,2013-05-06 10:51:00,
2013-05-06 05:56:00,47.0,45.9,30.04,North,360,0.0,-999.0,96,0.00,,,0.00,WeatherSnoop3.0,2013-05-06 10:56:00,
2013-05-06 06:01:00,47.3,46.2,30.04,NW,315,0.0,-999.0,96,0.00,,,0.00,WeatherSnoop3.0,2013-05-06 11:01:00,
2013-05-06 06:06:00,47.4,46.3,30.05,NW,315,0.0,-999.0,96,0.00,,,0.00,WeatherSnoop3.0,2013-05-06 11:06:00,
2013-05-06 06:11:00,47.4,46.3,30.05,NW,314,0.0,-999.0,96,0.00,,,0.00,WeatherSnoop3.0,2013-05-06 11:11:00,
2013-05-06 06:16:00,47.6,46.5,30.05,NW,315,0.0,-999.0,96,0.00,,,0.00,WeatherSnoop3.0,2013-05-06 11:16:00,
2013-05-06 06:21:00,47.6,46.5,30.05,NW,315,0.0,-999.0,96,0.00,,,0.00,WeatherSnoop3.0,2013-05-06 11:21:00,
2013-05-06 06:26:00,47.8,46.7,30.05,North,360,0.0,-999.0,96,0.00,,,0.00,WeatherSnoop3.0,2013-05-06 11:26:00,
2013-05-06 06:31:00,47.8,46.7,30.05,North,360,0.0,-999.0,96,0.00,,,0.00,WeatherSnoop3.0,2013-05-06 11:31:00,
2013-05-06 06:36:00,48.1,47.0,30.05,NW,315,0.0,-999.0,96,0.00,,,0.00,WeatherSnoop3.0,2013-05-06 11:36:00,
2013-05-06 06:41:00,48.3,47.2,30.05,NW,315,0.0,-999.0,96,0.00,,,0.00,WeatherSnoop3.0,2013-05-06 11:41:00,
2013-05-06 06:46:00,48.6,47.5,30.06,NW,315,0.0,-999.0,96,0.00,,,0.00,WeatherSnoop3.0,2013-05-06 11:46:00,
2013-05-06 06:51:00,48.7,47.6,30.06,NW,315,0.0,-999.0,96,0.00,,,0.00,WeatherSnoop3.0,2013-05-06 11:51:00,
2013-05-06 06:56:00,48.7,47.6,30.06,NW,315,0.0,-999.0,96,0.00,,,0.00,WeatherSnoop3.0,2013-05-06 11:56:00,
2013-05-06 07:01:00,48.7,47.6,30.06,NW,315,0.0,-999.0,96,0.00,,,0.00,WeatherSnoop3.0,2013-05-06 12:01:00,
2013-05-06 07:06:00,48.7,47.6,30.06,NW,315,0.0,-999.0,96,0.00,,,0.00,WeatherSnoop3.0,2013-05-06 12:06:00,
2013-05-06 07:11:00,48.9,47.8,30.06,NW,315,0.0,-999.0,96,0.00,,,0.00,WeatherSnoop3.0,2013-05-06 12:11:00,
2013-05-06 07:16:00,49.1,48.0,30.06,North,360,0.0,-999.0,96,0.00,,,0.00,WeatherSnoop3.0,2013-05-06 12:16:00,
2013-05-06 07:21:00,49.5,48.4,30.06,NW,315,0.0,-999.0,96,0.00,,,0.00,WeatherSnoop3.0,2013-05-06 12:21:00,
2013-05-06 07:26:00,50.0,48.9,30.06,NW,315,0.0,-999.0,96,0.00,,,0.00,WeatherSnoop3.0,2013-05-06 12:26:00,
2013-05-06 07:31:00,50.4,49.3,30.07,NW,315,0.0,-999.0,96,0.00,,,0.00,WeatherSnoop3.0,2013-05-06 12:31:00,
2013-05-06 07:36:00,50.7,49.6,30.06,NW,315,0.0,-999.0,96,0.00,,,0.00,WeatherSnoop3.0,2013-05-06 12:36:00,
2013-05-06 07:41:00,51.0,49.9,30.06,NW,315,0.0,-999.0,96,0.00,,,0.00,WeatherSnoop3.0,2013-05-06 12:41:00,
2013-05-06 07:46:00,51.6,50.5,30.07,NW,315,0.0,-999.0,96,0.00,,,0.00,WeatherSnoop3.0,2013-05-06 12:46:00,
2013-05-06 07:51:00,51.9,50.8,30.07,NW,314,0.0,-999.0,96,0.00,,,0.00,WeatherSnoop3.0,2013-05-06 12:51:00,
2013-05-06 07:56:00,52.4,51.3,30.07,NW,315,0.0,-999.0,96,0.00,,,0.00,WeatherSnoop3.0,2013-05-06 12:56:00,
2013-05-06 08:01:00,52.9,51.8,30.07,NW,315,0.0,-999.0,96,0.00,,,0.00,WeatherSnoop3.0,2013-05-06 13:01:00,
2013-05-06 08:06:00,53.3,51.9,30.07,NW,315,0.0,-999.0,95,0.00,,,0.00,WeatherSnoop3.0,2013-05-06 13:06:00,
2013-05-06 08:11:00,53.7,52.3,30.07,NW,315,0.0,-999.0,95,0.00,,,0.00,WeatherSnoop3.0,2013-05-06 13:11:00,
2013-05-06 08:16:00,54.0,52.0,30.07,WSW,255,0.0,-999.0,93,0.00,,,0.00,WeatherSnoop3.0,2013-05-06 13:16:00,
2013-05-06 08:21:00,54.7,52.4,30.07,WSW,254,0.0,-999.0,92,0.00,,,0.00,WeatherSnoop3.0,2013-05-06 13:21:00,
2013-05-06 08:26:00,55.3,52.4,30.07,WSW,258,0.0,-999.0,90,0.00,,,0.00,WeatherSnoop3.0,2013-05-06 13:26:00,
2013-05-06 08:31:00,56.1,52.9,30.07,WSW,258,0.0,-999.0,89,0.00,,,0.00,WeatherSnoop3.0,2013-05-06 13:31:00,
2013-05-06 08:36:00,56.9,52.4,30.07,WNW,290,0.0,-999.0,85,0.00,,,0.00,WeatherSnoop3.0,2013-05-06 13:36:00,
2013-05-06 08:41:00,57.6,52.5,30.07,WNW,289,0.0,-999.0,83,0.00,,,0.00,WeatherSnoop3.0,2013-05-06 13:41:00,
2013-05-06 08:46:00,58.0,52.2,30.07,WNW,289,0.0,-999.0,81,0.00,,,0.00,WeatherSnoop3.0,2013-05-06 13:46:00,
2013-05-06 08:51:00,58.6,52.4,30.08,SW,234,0.0,-999.0,80,0.00,,,0.00,WeatherSnoop3.0,2013-05-06 13:51:00,
2013-05-06 08:56:00,59.0,52.5,30.08,WNW,293,0.0,-999.0,79,0.00,,,0.00,WeatherSnoop3.0,2013-05-06 13:56:00,
2013-05-06 09:01:00,59.5,52.3,30.08,WSW,251,0.0,-999.0,77,0.00,,,0.00,WeatherSnoop3.0,2013-05-06 14:01:00,
2013-05-06 09:06:00,59.8,52.2,30.08,West,271,0.0,-999.0,76,0.00,,,0.00,WeatherSnoop3.0,2013-05-06 14:06:00,
2013-05-06 09:11:00,60.0,52.1,30.08,West,270,0.0,-999.0,75,0.00,,,0.00,WeatherSnoop3.0,2013-05-06 14:11:00,
2013-05-06 09:16:00,60.4,52.8,30.08,West,269,0.0,-999.0,76,0.00,,,0.00,WeatherSnoop3.0,2013-05-06 14:16:00,
2013-05-06 09:21:00,60.7,52.4,30.08,West,263,0.0,-999.0,74,0.00,,,0.00,WeatherSnoop3.0,2013-05-06 14:21:00,
2013-05-06 09:26:00,61.0,51.9,30.08,West,266,0.0,-999.0,72,0.00,,,0.00,WeatherSnoop3.0,2013-05-06 14:26:00,
2013-05-06 09:31:00,61.3,52.2,30.07,WSW,250,0.0,-999.0,72,0.00,,,0.00,WeatherSnoop3.0,2013-05-06 14:31:00,
2013-05-06 09:36:00,61.6,51.7,30.07,WSW,246,0.0,-999.0,70,0.00,,,0.00,WeatherSnoop3.0,2013-05-06 14:36:00,
2013-05-06 09:41:00,61.9,52.0,30.07,WSW,246,0.0,-999.0,70,0.00,,,0.00,WeatherSnoop3.0,2013-05-06 14:41:00,
2013-05-06 09:46:00,62.2,51.9,30.07,WNW,284,0.0,-999.0,69,0.00,,,0.00,WeatherSnoop3.0,2013-05-06 14:46:00,
2013-05-06 09:51:00,62.7,52.0,30.07,WNW,283,0.0,-999.0,68,0.00,,,0.00,WeatherSnoop3.0,2013-05-06 14:51:00,
2013-05-06 09:56:00,62.9,51.8,30.07,West,277,0.0,-999.0,67,0.00,,,0.00,WeatherSnoop3.0,2013-05-06 14:56:00,
2013-05-06 10:01:00,63.2,51.6,30.07,West,278,0.0,-999.0,66,0.00,,,0.00,WeatherSnoop3.0,2013-05-06 15:01:00,
2013-05-06 10:06:00,63.5,51.9,30.07,WNW,283,0.0,-999.0,66,0.00,,,0.00,WeatherSnoop3.0,2013-05-06 15:06:00,
2013-05-06 10:11:00,64.0,52.0,30.07,WNW,292,0.0,-999.0,65,0.00,,,0.00,WeatherSnoop3.0,2013-05-06 15:11:00,
2013-05-06 10:16:00,64.4,51.5,30.07,WNW,288,0.0,-999.0,63,0.00,,,0.00,WeatherSnoop3.0,2013-05-06 15:16:00,
2013-05-06 10:21:00,64.6,51.3,30.07,WNW,298,0.0,-999.0,62,0.00,,,0.00,WeatherSnoop3.0,2013-05-06 15:21:00,
2013-05-06 10:26:00,64.8,51.5,30.07,WSW,255,0.0,-999.0,62,0.00,,,0.00,WeatherSnoop3.0,2013-05-06 15:26:00,
2013-05-06 10:31:00,64.9,51.6,30.07,NW,305,0.0,-999.0,62,0.00,,,0.00,WeatherSnoop3.0,2013-05-06 15:31:00,
2013-05-06 10:36:00,65.1,51.3,30.07,West,267,0.0,-999.0,61,0.00,,,0.00,WeatherSnoop3.0,2013-05-06 15:36:00,
2013-05-06 10:41:00,65.2,51.8,30.07,West,270,0.0,-999.0,62,0.00,,,0.00,WeatherSnoop3.0,2013-05-06 15:41:00,
2013-05-06 10:46:00,65.4,51.1,30.07,WNW,294,0.0,-999.0,60,0.00,,,0.00,WeatherSnoop3.0,2013-05-06 15:46:00,
2013-05-06 10:51:00,65.8,52.4,30.07,West,275,0.0,-999.0,62,0.00,,,0.00,WeatherSnoop3.0,2013-05-06 15:51:00,
2013-05-06 10:56:00,65.8,51.5,30.07,West,279,0.0,-999.0,60,0.00,,,0.00,WeatherSnoop3.0,2013-05-06 15:56:00,
2013-05-06 11:01:00,65.9,52.1,30.07,WNW,296,0.0,-999.0,61,0.00,,,0.00,WeatherSnoop3.0,2013-05-06 16:01:00,
2013-05-06 11:06:00,66.1,50.9,30.07,WNW,284,0.0,-999.0,58,0.00,,,0.00,WeatherSnoop3.0,2013-05-06 16:06:00,
2013-05-06 11:11:00,66.1,52.7,30.07,WNW,285,0.0,-999.0,62,0.00,,,0.00,WeatherSnoop3.0,2013-05-06 16:11:00,
2013-05-06 11:16:00,66.2,53.2,30.07,West,270,0.0,-999.0,63,0.00,,,0.00,WeatherSnoop3.0,2013-05-06 16:16:00,
2013-05-06 11:21:00,66.3,52.0,30.07,West,263,0.0,-999.0,60,0.00,,,0.00,WeatherSnoop3.0,2013-05-06 16:21:00,
2013-05-06 11:26:00,66.5,52.2,30.06,WNW,297,0.0,-999.0,60,0.00,,,0.00,WeatherSnoop3.0,2013-05-06 16:26:00,
2013-05-06 11:31:00,66.7,51.9,30.06,WNW,302,0.0,-999.0,59,0.00,,,0.00,WeatherSnoop3.0,2013-05-06 16:31:00,
2013-05-06 11:36:00,67.0,51.7,30.06,West,261,0.0,-999.0,58,0.00,,,0.00,WeatherSnoop3.0,2013-05-06 16:36:00,
2013-05-06 11:41:00,67.4,52.1,30.06,WSW,247,0.0,-999.0,58,0.00,,,0.00,WeatherSnoop3.0,2013-05-06 16:41:00,
2013-05-06 11:46:00,67.7,52.8,30.06,WSW,238,0.0,-999.0,59,0.00,,,0.00,WeatherSnoop3.0,2013-05-06 16:46:00,
2013-05-06 11:51:00,68.1,52.3,30.05,West,266,0.0,-999.0,57,0.00,,,0.00,WeatherSnoop3.0,2013-05-06 16:51:00,
2013-05-06 11:56:00,67.8,52.9,30.06,WNW,291,0.0,-999.0,59,0.00,,,0.00,WeatherSnoop3.0,2013-05-06 16:56:00,
2013-05-06 12:01:00,68.2,53.3,30.05,West,269,0.0,-999.0,59,0.00,,,0.00,WeatherSnoop3.0,2013-05-06 17:01:00,
2013-05-06 12:06:00,68.5,53.6,30.05,WNW,292,0.0,-999.0,59,0.00,,,0.00,WeatherSnoop3.0,2013-05-06 17:06:00,
2013-05-06 12:11:00,68.5,54.1,30.05,WSW,251,0.0,-999.0,60,0.00,,,0.00,WeatherSnoop3.0,2013-05-06 17:11:00,
2013-05-06 12:16:00,69.0,54.1,30.05,SW,224,0.0,-999.0,59,0.00,,,0.00,WeatherSnoop3.0,2013-05-06 17:16:00,
2013-05-06 12:21:00,69.5,54.1,30.05,SW,217,0.0,-999.0,58,0.00,,,0.00,WeatherSnoop3.0,2013-05-06 17:21:00,
2013-05-06 12:26:00,69.8,53.4,30.05,West,281,0.0,-999.0,56,0.00,,,0.00,WeatherSnoop3.0,2013-05-06 17:26:00,
2013-05-06 12:31:00,69.4,52.0,30.04,NW,322,0.0,-999.0,54,0.00,,,0.00,WeatherSnoop3.0,2013-05-06 17:31:00,
2013-05-06 12:36:00,69.4,53.5,30.04,SW,232,0.0,-999.0,57,0.00,,,0.00,WeatherSnoop3.0,2013-05-06 17:36:00,
2013-05-06 12:41:00,70.1,54.6,30.04,WNW,290,0.0,-999.0,58,0.00,,,0.00,WeatherSnoop3.0,2013-05-06 17:41:00,
2013-05-06 12:46:00,70.3,53.4,30.04,WSW,248,0.0,-999.0,55,0.00,,,0.00,WeatherSnoop3.0,2013-05-06 17:46:00,
2013-05-06 12:51:00,70.5,55.5,30.04,WNW,289,0.0,-999.0,59,0.00,,,0.00,WeatherSnoop3.0,2013-05-06 17:51:00,
2013-05-06 12:56:00,70.2,54.7,30.03,WNW,292,0.0,-999.0,58,0.00,,,0.00,WeatherSnoop3.0,2013-05-06 17:56:00,
2013-05-06 13:01:00,69.9,54.0,30.03,WSW,252,0.0,-999.0,57,0.00,,,0.00,WeatherSnoop3.0,2013-05-06 18:01:00,
2013-05-06 13:06:00,70.4,55.4,30.03,WNW,291,0.0,-999.0,59,0.00,,,0.00,WeatherSnoop3.0,2013-05-06 18:06:00,
2013-05-06 13:11:00,71.1,54.6,30.03,NW,323,0.0,-999.0,56,0.00,,,0.00,WeatherSnoop3.0,2013-05-06 18:11:00,
2013-05-06 13:16:00,71.3,54.8,30.03,WNW,286,0.0,-999.0,56,0.00,,,0.00,WeatherSnoop3.0,2013-05-06 18:16:00,
2013-05-06 13:21:00,71.7,54.2,30.02,West,259,0.0,-999.0,54,0.00,,,0.00,WeatherSnoop3.0,2013-05-06 18:21:00,
2013-05-06 13:26:00,72.4,56.3,30.02,West,259,0.0,-999.0,57,0.00,,,0.00,WeatherSnoop3.0,2013-05-06 18:26:00,
2013-05-06 13:31:00,73.2,56.1,30.02,SW,235,0.0,-999.0,55,0.00,,,0.00,WeatherSnoop3.0,2013-05-06 18:31:00,
2013-05-06 13:36:00,74.0,55.8,30.02,WSW,257,0.0,-999.0,53,0.00,,,0.00,WeatherSnoop3.0,2013-05-06 18:36:00,
2013-05-06 13:41:00,74.6,56.8,30.02,SSW,206,0.0,-999.0,54,0.00,,,0.00,WeatherSnoop3.0,2013-05-06 18:41:00,
2013-05-06 13:46:00,75.2,57.4,30.02,WSW,238,0.0,-999.0,54,0.00,,,0.00,WeatherSnoop3.0,2013-05-06 18:46:00,
2013-05-06 13:51:00,75.6,55.6,30.02,SW,224,0.0,-999.0,50,0.00,,,0.00,WeatherSnoop3.0,2013-05-06 18:51:00,
2013-05-06 13:56:00,75.5,56.1,30.02,West,259,0.0,-999.0,51,0.00,,,0.00,WeatherSnoop3.0,2013-05-06 18:56:00,
2013-05-06 14:01:00,76.0,56.5,30.01,West,275,0.0,-999.0,51,0.00,,,0.00,WeatherSnoop3.0,2013-05-06 19:01:00,
2013-05-06 14:06:00,75.8,56.4,30.01,West,275,0.0,-999.0,51,0.00,,,0.00,WeatherSnoop3.0,2013-05-06 19:06:00,
2013-05-06 14:11:00,74.7,55.9,30.01,WSW,256,0.0,-999.0,52,0.00,,,0.00,WeatherSnoop3.0,2013-05-06 19:11:00,
2013-05-06 14:16:00,74.7,55.4,30.01,WNW,289,0.0,-999.0,51,0.00,,,0.00,WeatherSnoop3.0,2013-05-06 19:16:00,
2013-05-06 14:21:00,74.7,55.9,30.01,NW,320,0.0,-999.0,52,0.00,,,0.00,WeatherSnoop3.0,2013-05-06 19:21:00,
2013-05-06 14:26:00,75.3,55.9,30.01,SSW,211,0.0,-999.0,51,0.00,,,0.00,WeatherSnoop3.0,2013-05-06 19:26:00,
2013-05-06 14:31:00,76.0,56.0,30.00,West,279,0.0,-999.0,50,0.00,,,0.00,WeatherSnoop3.0,2013-05-06 19:31:00,
2013-05-06 14:36:00,75.9,58.0,30.00,West,261,0.0,-999.0,54,0.00,,,0.00,WeatherSnoop3.0,2013-05-06 19:36:00,
2013-05-06 14:41:00,76.9,56.3,30.00,WNW,287,0.0,-999.0,49,0.00,,,0.00,WeatherSnoop3.0,2013-05-06 19:41:00,
2013-05-06 14:46:00,76.3,56.8,30.00,WSW,246,0.0,-999.0,51,0.00,,,0.00,WeatherSnoop3.0,2013-05-06 19:46:00,
2013-05-06 14:51:00,76.4,56.9,29.99,WSW,246,0.0,-999.0,51,0.00,,,0.00,WeatherSnoop3.0,2013-05-06 19:51:00,
2013-05-06 14:56:00,76.4,56.4,29.99,SW,233,0.0,-999.0,50,0.00,,,0.00,WeatherSnoop3.0,2013-05-06 19:56:00,
2013-05-06 15:01:00,77.1,57.0,29.99,NW,310,0.0,-999.0,50,0.00,,,0.00,WeatherSnoop3.0,2013-05-06 20:01:00,
2013-05-06 15:06:00,76.8,55.6,29.99,WSW,256,0.0,-999.0,48,0.00,,,0.00,WeatherSnoop3.0,2013-05-06 20:06:00,
2013-05-06 15:11:00,77.6,56.9,29.99,WNW,284,0.0,-999.0,49,0.00,,,0.00,WeatherSnoop3.0,2013-05-06 20:11:00,
2013-05-06 15:16:00,78.1,57.9,29.99,WNW,283,0.0,-999.0,50,0.00,,,0.00,WeatherSnoop3.0,2013-05-06 20:16:00,
2013-05-06 15:21:00,79.0,57.0,29.99,WSW,238,0.0,-999.0,47,0.00,,,0.00,WeatherSnoop3.0,2013-05-06 20:21:00,
2013-05-06 15:26:00,78.8,57.4,29.98,WNW,283,0.0,-999.0,48,0.00,,,0.00,WeatherSnoop3.0,2013-05-06 20:26:00,
2013-05-06 15:31:00,78.6,57.2,29.98,SW,223,0.0,-999.0,48,0.00,,,0.00,WeatherSnoop3.0,2013-05-06 20:31:00,
2013-05-06 15:36:00,78.8,56.8,29.98,WNW,300,0.0,-999.0,47,0.00,,,0.00,WeatherSnoop3.0,2013-05-06 20:36:00,
2013-05-06 15:41:00,78.4,57.1,29.97,SW,234,0.0,-999.0,48,0.00,,,0.00,WeatherSnoop3.0,2013-05-06 20:41:00,
2013-05-06 15:46:00,79.2,56.0,29.97,WSW,246,0.0,-999.0,45,0.00,,,0.00,WeatherSnoop3.0,2013-05-06 20:46:00,
2013-05-06 15:51:00,79.8,57.8,29.97,WNW,294,0.0,-999.0,47,0.00,,,0.00,WeatherSnoop3.0,2013-05-06 20:51:00,
2013-05-06 15:56:00,79.6,56.4,29.96,West,275,0.0,-999.0,45,0.00,,,0.00,WeatherSnoop3.0,2013-05-06 20:56:00,
2013-05-06 16:01:00,79.4,57.4,29.96,WSW,246,0.0,-999.0,47,0.00,,,0.00,WeatherSnoop3.0,2013-05-06 21:01:00,
2013-05-06 16:06:00,80.2,58.7,29.96,WSW,244,0.0,-999.0,48,0.00,,,0.00,WeatherSnoop3.0,2013-05-06 21:06:00,
2013-05-06 16:11:00,80.6,56.6,29.95,SW,236,0.0,-999.0,44,0.00,,,0.00,WeatherSnoop3.0,2013-05-06 21:11:00,
2013-05-06 16:16:00,80.7,58.0,29.95,WSW,238,0.0,-999.0,46,0.00,,,0.00,WeatherSnoop3.0,2013-05-06 21:16:00,
2013-05-06 16:21:00,80.1,56.8,29.95,NW,308,0.0,-999.0,45,0.00,,,0.00,WeatherSnoop3.0,2013-05-06 21:21:00,
2013-05-06 16:26:00,79.8,58.3,29.95,SW,224,0.0,-999.0,48,0.00,,,0.00,WeatherSnoop3.0,2013-05-06 21:26:00,
2013-05-06 16:31:00,80.1,56.8,29.95,West,260,0.0,-999.0,45,0.00,,,0.00,WeatherSnoop3.0,2013-05-06 21:31:00,
2013-05-06 16:36:00,79.1,55.9,29.95,WSW,242,0.0,-999.0,45,0.00,,,0.00,WeatherSnoop3.0,2013-05-06 21:36:00,
2013-05-06 16:41:00,78.8,58.0,29.95,SSW,207,0.0,-999.0,49,0.00,,,0.00,WeatherSnoop3.0,2013-05-06 21:41:00,
2013-05-06 16:46:00,79.2,57.2,29.94,West,265,0.0,-999.0,47,0.00,,,0.00,WeatherSnoop3.0,2013-05-06 21:46:00,
2013-05-06 16:51:00,78.7,56.2,29.95,WNW,291,0.0,-999.0,46,0.00,,,0.00,WeatherSnoop3.0,2013-05-06 21:51:00,
2013-05-06 16:56:00,79.1,58.8,29.94,WSW,248,0.0,-999.0,50,0.00,,,0.00,WeatherSnoop3.0,2013-05-06 21:56:00,
2013-05-06 17:01:00,79.2,56.0,29.94,WNW,290,0.0,-999.0,45,0.00,,,0.00,WeatherSnoop3.0,2013-05-06 22:01:00,
2013-05-06 17:06:00,78.9,57.5,29.94,West,259,0.0,-999.0,48,0.00,,,0.00,WeatherSnoop3.0,2013-05-06 22:06:00,
2013-05-06 17:11:00,77.8,55.3,29.94,WNW,282,0.0,-999.0,46,0.00,,,0.00,WeatherSnoop3.0,2013-05-06 22:11:00,
2013-05-06 17:16:00,77.2,56.0,29.94,WSW,237,0.0,-999.0,48,0.00,,,0.00,WeatherSnoop3.0,2013-05-06 22:16:00,
2013-05-06 17:21:00,77.3,56.6,29.94,West,271,0.0,-999.0,49,0.00,,,0.00,WeatherSnoop3.0,2013-05-06 22:21:00,
2013-05-06 17:26:00,77.3,56.1,29.94,West,279,0.0,-999.0,48,0.00,,,0.00,WeatherSnoop3.0,2013-05-06 22:26:00,
2013-05-06 17:31:00,77.5,56.8,29.94,West,279,0.0,-999.0,49,0.00,,,0.00,WeatherSnoop3.0,2013-05-06 22:31:00,
2013-05-06 17:36:00,77.5,56.8,29.94,WNW,289,0.0,-999.0,49,0.00,,,0.00,WeatherSnoop3.0,2013-05-06 22:36:00,
2013-05-06 17:41:00,78.0,57.3,29.94,WSW,254,0.0,-999.0,49,0.00,,,0.00,WeatherSnoop3.0,2013-05-06 22:41:00,
2013-05-06 17:46:00,79.0,57.6,29.94,WSW,254,0.0,-999.0,48,0.00,,,0.00,WeatherSnoop3.0,2013-05-06 22:46:00,
2013-05-06 17:51:00,79.8,57.8,29.94,WSW,254,0.0,-999.0,47,0.00,,,0.00,WeatherSnoop3.0,2013-05-06 22:51:00,
2013-05-06 17:56:00,80.5,57.8,29.94,WSW,254,0.0,-999.0,46,0.00,,,0.00,WeatherSnoop3.0,2013-05-06 22:56:00,
2013-05-06 18:01:00,79.8,56.5,29.94,West,281,0.0,-999.0,45,0.00,,,0.00,WeatherSnoop3.0,2013-05-06 23:01:00,
2013-05-06 18:06:00,79.1,56.5,29.94,WSW,253,0.0,-999.0,46,0.00,,,0.00,WeatherSnoop3.0,2013-05-06 23:06:00,
2013-05-06 18:11:00,78.4,58.2,29.94,SW,233,0.0,-999.0,50,0.00,,,0.00,WeatherSnoop3.0,2013-05-06 23:11:00,
2013-05-06 18:16:00,77.9,58.3,29.94,SW,234,0.0,-999.0,51,0.00,,,0.00,WeatherSnoop3.0,2013-05-06 23:16:00,
2013-05-06 18:21:00,77.7,59.7,29.95,SW,233,0.0,-999.0,54,0.00,,,0.00,WeatherSnoop3.0,2013-05-06 23:21:00,
2013-05-06 18:26:00,77.4,57.3,29.95,SW,221,0.0,-999.0,50,0.00,,,0.00,WeatherSnoop3.0,2013-05-06 23:26:00,
2013-05-06 18:31:00,77.1,59.2,29.95,SW,221,0.0,-999.0,54,0.00,,,0.00,WeatherSnoop3.0,2013-05-06 23:31:00,
2013-05-06 18:36:00,76.7,58.8,29.95,SW,220,0.0,-999.0,54,0.00,,,0.00,WeatherSnoop3.0,2013-05-06 23:36:00,
2013-05-06 18:41:00,76.4,58.5,29.95,SW,220,0.0,-999.0,54,0.00,,,0.00,WeatherSnoop3.0,2013-05-06 23:41:00,
2013-05-06 18:46:00,76.2,59.3,29.95,SW,220,0.0,-999.0,56,0.00,,,0.00,WeatherSnoop3.0,2013-05-06 23:46:00,
2013-05-06 18:51:00,75.9,58.0,29.95,SW,220,0.0,-999.0,54,0.00,,,0.00,WeatherSnoop3.0,2013-05-06 23:51:00,
2013-05-06 18:56:00,75.7,58.4,29.95,WSW,248,0.0,-999.0,55,0.00,,,0.00,WeatherSnoop3.0,2013-05-06 23:56:00,
2013-05-06 19:01:00,75.6,58.8,29.95,WSW,249,0.0,-999.0,56,0.00,,,0.00,WeatherSnoop3.0,2013-05-07 00:01:00,
2013-05-06 19:06:00,75.4,58.1,29.95,WSW,249,0.0,-999.0,55,0.00,,,0.00,WeatherSnoop3.0,2013-05-07 00:06:00,
2013-05-06 19:11:00,75.2,58.4,29.95,WSW,248,0.0,-999.0,56,0.00,,,0.00,WeatherSnoop3.0,2013-05-07 00:11:00,
2013-05-06 19:16:00,74.9,58.6,29.95,WSW,249,0.0,-999.0,57,0.00,,,0.00,WeatherSnoop3.0,2013-05-07 00:16:00,
2013-05-06 19:21:00,74.4,58.2,29.95,WSW,248,0.0,-999.0,57,0.00,,,0.00,WeatherSnoop3.0,2013-05-07 00:21:00,
2013-05-06 19:26:00,73.8,58.1,29.96,WSW,249,0.0,-999.0,58,0.00,,,0.00,WeatherSnoop3.0,2013-05-07 00:26:00,
2013-05-06 19:31:00,73.0,57.8,29.96,WSW,248,0.0,-999.0,59,0.00,,,0.00,WeatherSnoop3.0,2013-05-07 00:31:00,
2013-05-06 19:36:00,72.2,58.0,29.96,WSW,249,0.0,-999.0,61,0.00,,,0.00,WeatherSnoop3.0,2013-05-07 00:36:00,
2013-05-06 19:41:00,71.7,58.4,29.96,WSW,248,0.0,-999.0,63,0.00,,,0.00,WeatherSnoop3.0,2013-05-07 00:41:00,
2013-05-06 19:46:00,71.2,57.9,29.96,WSW,249,0.0,-999.0,63,0.00,,,0.00,WeatherSnoop3.0,2013-05-07 00:46:00,
2013-05-06 19:51:00,70.7,58.3,29.96,WSW,248,0.0,-999.0,65,0.00,,,0.00,WeatherSnoop3.0,2013-05-07 00:51:00,
2013-05-06 19:56:00,70.3,58.4,29.97,WSW,248,0.0,-999.0,66,0.00,,,0.00,WeatherSnoop3.0,2013-05-07 00:56:00,
2013-05-06 20:01:00,69.8,59.2,29.97,WSW,249,0.0,-999.0,69,0.00,,,0.00,WeatherSnoop3.0,2013-05-07 01:01:00,
2013-05-06 20:06:00,69.2,59.4,29.97,WSW,248,0.0,-999.0,71,0.00,,,0.00,WeatherSnoop3.0,2013-05-07 01:06:00,
2013-05-06 20:11:00,68.3,59.3,29.97,WSW,248,0.0,-999.0,73,0.00,,,0.00,WeatherSnoop3.0,2013-05-07 01:11:00,
2013-05-06 20:16:00,67.7,59.1,29.97,WSW,249,0.0,-999.0,74,0.00,,,0.00,WeatherSnoop3.0,2013-05-07 01:16:00,
2013-05-06 20:21:00,67.1,58.9,29.97,WSW,248,0.0,-999.0,75,0.00,,,0.00,WeatherSnoop3.0,2013-05-07 01:21:00,
2013-05-06 20:26:00,66.6,58.4,29.97,WSW,249,0.0,-999.0,75,0.00,,,0.00,WeatherSnoop3.0,2013-05-07 01:26:00,
2013-05-06 20:31:00,66.2,58.4,29.97,WSW,249,0.0,-999.0,76,0.00,,,0.00,WeatherSnoop3.0,2013-05-07 01:31:00,
2013-05-06 20:36:00,65.6,58.5,29.97,WSW,249,0.0,-999.0,78,0.00,,,0.00,WeatherSnoop3.0,2013-05-07 01:36:00,
2013-05-06 20:41:00,65.2,58.5,29.98,WSW,249,0.0,-999.0,79,0.00,,,0.00,WeatherSnoop3.0,2013-05-07 01:41:00,
2013-05-06 20:46:00,64.7,58.4,29.98,WSW,248,0.0,-999.0,80,0.00,,,0.00,WeatherSnoop3.0,2013-05-07 01:46:00,
2013-05-06 20:51:00,64.4,58.4,29.98,WSW,248,0.0,-999.0,81,0.00,,,0.00,WeatherSnoop3.0,2013-05-07 01:51:00,
2013-05-06 20:56:00,64.1,58.5,29.98,WSW,249,0.0,-999.0,82,0.00,,,0.00,WeatherSnoop3.0,2013-05-07 01:56:00,
2013-05-06 21:01:00,63.8,58.2,29.98,WSW,248,0.0,-999.0,82,0.00,,,0.00,WeatherSnoop3.0,2013-05-07 02:01:00,
2013-05-06 21:06:00,63.5,58.2,29.98,WSW,249,0.0,-999.0,83,0.00,,,0.00,WeatherSnoop3.0,2013-05-07 02:06:00,
2013-05-06 21:11:00,63.2,57.9,29.98,WSW,249,0.0,-999.0,83,0.00,,,0.00,WeatherSnoop3.0,2013-05-07 02:11:00,
2013-05-06 21:16:00,62.9,58.0,29.99,WSW,249,0.0,-999.0,84,0.00,,,0.00,WeatherSnoop3.0,2013-05-07 02:16:00,
2013-05-06 21:21:00,62.8,57.9,29.99,WSW,249,0.0,-999.0,84,0.00,,,0.00,WeatherSnoop3.0,2013-05-07 02:21:00,
2013-05-06 21:26:00,62.6,58.0,29.99,WSW,250,0.0,-999.0,85,0.00,,,0.00,WeatherSnoop3.0,2013-05-07 02:26:00,
2013-05-06 21:31:00,62.4,57.8,29.99,WSW,249,0.0,-999.0,85,0.00,,,0.00,WeatherSnoop3.0,2013-05-07 02:31:00,
2013-05-06 21:36:00,62.1,57.9,29.99,WSW,249,0.0,-999.0,86,0.00,,,0.00,WeatherSnoop3.0,2013-05-07 02:36:00,
2013-05-06 21:41:00,62.0,58.1,30.00,WSW,249,0.0,-999.0,87,0.00,,,0.00,WeatherSnoop3.0,2013-05-07 02:41:00,
2013-05-06 21:46:00,61.8,57.9,29.99,WSW,249,0.0,-999.0,87,0.00,,,0.00,WeatherSnoop3.0,2013-05-07 02:46:00,
2013-05-06 21:51:00,61.7,57.8,29.99,WSW,248,0.0,-999.0,87,0.00,,,0.00,WeatherSnoop3.0,2013-05-07 02:51:00,
2013-05-06 21:56:00,61.5,57.6,30.00,WSW,249,0.0,-999.0,87,0.00,,,0.00,WeatherSnoop3.0,2013-05-07 02:56:00,
2013-05-06 22:01:00,61.3,57.4,30.00,WSW,249,0.0,-999.0,87,0.00,,,0.00,WeatherSnoop3.0,2013-05-07 03:01:00,
2013-05-06 22:06:00,61.1,57.5,30.00,WSW,249,0.0,-999.0,88,0.00,,,0.00,WeatherSnoop3.0,2013-05-07 03:06:00,
2013-05-06 22:11:00,60.9,57.6,30.00,WSW,249,0.0,-999.0,89,0.00,,,0.00,WeatherSnoop3.0,2013-05-07 03:11:00,
2013-05-06 22:16:00,60.8,57.5,30.00,WSW,249,0.0,-999.0,89,0.00,,,0.00,WeatherSnoop3.0,2013-05-07 03:16:00,
2013-05-06 22:21:00,60.7,57.4,30.00,WSW,248,0.0,-999.0,89,0.00,,,0.00,WeatherSnoop3.0,2013-05-07 03:21:00,
2013-05-06 22:26:00,60.5,57.2,30.00,WSW,248,0.0,-999.0,89,0.00,,,0.00,WeatherSnoop3.0,2013-05-07 03:26:00,
2013-05-06 22:31:00,60.4,57.1,30.00,WSW,249,0.0,-999.0,89,0.00,,,0.00,WeatherSnoop3.0,2013-05-07 03:31:00,
2013-05-06 22:36:00,60.3,57.4,30.00,WSW,249,0.0,-999.0,90,0.00,,,0.00,WeatherSnoop3.0,2013-05-07 03:36:00,
2013-05-06 22:41:00,60.2,57.3,30.00,WSW,249,0.0,-999.0,90,0.00,,,0.00,WeatherSnoop3.0,2013-05-07 03:41:00,
2013-05-06 22:46:00,60.2,57.3,30.00,WSW,249,0.0,-999.0,90,0.00,,,0.00,WeatherSnoop3.0,2013-05-07 03:46:00,
2013-05-06 22:51:00,60.1,57.2,30.00,WSW,249,0.0,-999.0,90,0.00,,,0.00,WeatherSnoop3.0,2013-05-07 03:51:00,
2013-05-06 22:56:00,60.0,57.1,30.00,WSW,249,0.0,-999.0,90,0.00,,,0.00,WeatherSnoop3.0,2013-05-07 03:56:00,
2013-05-06 23:01:00,60.0,57.1,30.01,WSW,249,0.0,-999.0,90,0.00,,,0.00,WeatherSnoop3.0,2013-05-07 04:01:00,
2013-05-06 23:06:00,60.0,57.1,30.01,WSW,248,0.0,-999.0,90,0.00,,,0.00,WeatherSnoop3.0,2013-05-07 04:06:00,
2013-05-06 23:11:00,59.9,57.0,30.01,WSW,249,0.0,-999.0,90,0.00,,,0.00,WeatherSnoop3.0,2013-05-07 04:11:00,
2013-05-06 23:16:00,59.8,57.2,30.01,WSW,248,0.0,-999.0,91,0.00,,,0.00,WeatherSnoop3.0,2013-05-07 04:16:00,
2013-05-06 23:21:00,59.6,57.0,30.01,WSW,249,0.0,-999.0,91,0.00,,,0.00,WeatherSnoop3.0,2013-05-07 04:21:00,
2013-05-06 23:26:00,59.5,56.9,30.00,WSW,248,0.0,-999.0,91,0.00,,,0.00,WeatherSnoop3.0,2013-05-07 04:26:00,
2013-05-06 23:31:00,59.7,57.4,30.00,SSE,155,0.0,-999.0,92,0.00,,,0.00,WeatherSnoop3.0,2013-05-07 04:31:00,
2013-05-06 23:36:00,59.7,57.4,30.00,SSE,155,0.0,-999.0,92,0.00,,,0.00,WeatherSnoop3.0,2013-05-07 04:36:00,
2013-05-06 23:41:00,59.6,57.0,30.00,SSE,155,0.0,-999.0,91,0.00,,,0.00,WeatherSnoop3.0,2013-05-07 04:41:00,
2013-05-06 23:46:00,59.4,56.8,30.00,SSE,155,0.0,-999.0,91,0.00,,,0.00,WeatherSnoop3.0,2013-05-07 04:46:00,
2013-05-06 23:51:00,59.2,56.6,30.00,SSE,155,0.0,-999.0,91,0.00,,,0.00,WeatherSnoop3.0,2013-05-07 04:51:00,
2013-05-06 23:56:00,59.2,56.6,30.00,SSE,155,0.0,-999.0,91,0.00,,,0.00,WeatherSnoop3.0,2013-05-07 04:56:00,